This demonstration page uses our WeatherBlox Daily Observations layout. Learn more.

Left ArrowRight Arrow

41.55636, -103.73856

Hourly Observations for December 14, 2019

Temp ( °F °C ) Dew Point ( °F °C ) Humidity (%) Winds ( mph kmh ) Pressure ( in mb ) Visibility ( mi km ) Precip ( " mm )
5:58 pm 17:58 Mostly Cloudy 32 0.2 31 -0.8 93 93 WNW 7 11 30.04 1017 10 16 0.00 0.00
6:58 pm 18:58 Mostly Clear 30 -1.1 29 -1.8 95 95 WSW 6 9 30.04 1017 10 16 0.00 0.00
7:58 pm 19:58 Mostly Cloudy 30 -1.3 29 -1.7 97 97 WSW 5 7 30.03 1017 10 16 0.00 0.00
8:58 pm 20:58 Mostly Cloudy 29 -1.7 28 -2.1 97 97 WSW 3 6 30.00 1016 10 16 0.00 0.00
9:58 pm 21:58 Mostly Cloudy 26 -3.3 24 -4.3 93 93 SW 5 7 29.99 1016 10 16 0.00 0.00
10:58 pm 22:58 Clear 26 -3.6 23 -5.1 89 89 SW 6 9 29.97 1015 10 16 0.00 0.00
11:58 pm 23:58 Clear 24 -4.2 19 -7 81 81 SW 6 9 29.96 1015 10 16 0.00 0.00
12:58 am 00:58 Mostly Cloudy 22 -5.8 18 -7.9 85 85 SSW 5 7 29.96 1015 10 16 0.00 0.00
1:58 am 01:58 Mostly Cloudy 28 -2.1 20 -6.8 71 71 Calm 29.89 1012 10 16 0.00 0.00
2:58 am 02:58 Cloudy 23 -4.9 20 -6.6 88 88 WSW 3 6 29.91 1013 10 16 0.00 0.00
4:58 am 04:58 Cloudy with Light Snow Showers 26 -3.6 23 -5.2 89 89 Calm 29.92 1013 10 16 0.00 0.00
6:59 am 06:59 Cloudy with Light Snow 25 -3.8 24 -4.3 96 96 E 3 6 29.93 1014 3 4 0.02 0.51
7:58 am 07:58 Cloudy with Light Snow 26 -3.6 25 -4 97 97 Calm 29.91 1013 10 16 0.01 0.25
8:58 am 08:58 Cloudy with Light Snow 28 -2.4 27 -3 96 96 SE 3 6 29.89 1012 4 6 0.02 0.51
9:58 am 09:58 Cloudy with Light Snow 29 -1.7 28 -2.5 94 94 E 3 6 29.89 1012 3 5 0.02 0.51
10:58 am 10:58 Cloudy with Light Showers 29 -1.4 27 -2.8 90 90 SSE 7 11 29.85 1011 10 16 0.01 0.25
11:58 am 11:58 Mostly Cloudy 30 -1.3 27 -3 88 88 SSE 7 11 29.83 1010 10 16 0.00 0.00
12:58 pm 12:58 Mostly Cloudy 30 -0.9 27 -2.8 87 87 SE 6 9 29.81 1009 10 16 0.00 0.00
2:58 pm 14:58 Mostly Cloudy with Light Snow 30 -1.1 29 -1.7 96 96 E 9 15 29.80 1009 2 2 0.00 0.00
3:58 pm 15:58 Cloudy with Light Snow 29 -1.6 29 -1.9 98 98 E 10 17 29.81 1009 4 6 0.01 0.25
4:58 pm 16:58 Mostly Cloudy with Light Snow 28 -2 28 -2.2 99 99 E 8 13 29.81 1009 1 2 0.00 0.00

Powered by AerisWeather